Weather History for KRUT - December, 2012

Change the Weather History Date:

Monday, December 17, 2012

  Actual Average Record
Temperature  
Mean Temperature 32 °F -  
Max Temperature 36 °F - 54 °F (1984)
Min Temperature 27 °F - -8 °F (2013)
Degree Days  
Heating Degree Days 33    
Month to date heating degree days 515  
Since 1 July heating degree days 1869  
Cooling Degree Days 0    
Month to date cooling degree days 0  
Year to date cooling degree days 411  
Moisture  
Dew Point 26 °F    
Average Humidity 84    
Maximum Humidity 92    
Minimum Humidity 75    
Precipitation  
Precipitation 0.10 in - 2.03 in (2000)
Month to date precipitation 0.86  
Year to date precipitation 22.71  
Sea Level Pressure  
Sea Level Pressure 29.91 in    
Wind  
Wind Speed 14 mph (SSE)    
Max Wind Speed 21 mph    
Max Gust Speed 36 mph    
Visibility 10 miles    
Events      
T = Trace of Precipitation, MM = Missing Value Source: NWS Daily Summary

Daily Weather History Graph

Daily Weather History Graph

Search for Another Location

Airport or City:

Trip Planner

Search our weather history database for the weather conditions in past years. The results will help you decide how hot, cold, wet, or windy it might be!

Date:

Astronomy

Dec. 17, 2012 Rise Set
Actual Time 7:19 AM EST 4:16 PM EST
Civil Twilight 6:46 AM EST 4:49 PM EST
Nautical Twilight 6:10 AM EST 5:25 PM EST
Astronomical Twilight 5:35 AM EST 6:00 PM EST
Moon 10:19 AM EST (12/17) 9:43 PM EST (12/17)
Length of Visible Light 10h 02m
Length of Day
8h 57m
Waxing Crescent, 24% of the Moon is Illuminated
Dec 17
Waxing Crescent
Dec 20
First Quarter
Dec 28
Full
Jan 4
Last Quarter
Jan 11
New

Hourly Weather History & Observations

Time (EST) Temp. Windchill Dew Point Humidity Pressure Visibility Wind Dir Wind Speed Gust Speed Precip Events Conditions
12:15 AM 28.4 °F 16.6 °F 24.8 °F 86% 29.99 in 10.0 mi SSE 16.1 mph 26.5 mph N/A   Overcast
12:35 AM 28.4 °F 14.4 °F 24.8 °F 86% 29.98 in 10.0 mi SE 23.0 mph 34.5 mph N/A   Overcast
1:15 AM 28.4 °F 15.4 °F 23.0 °F 80% 29.97 in 10.0 mi SE 19.6 mph 33.4 mph N/A   Overcast
1:35 AM 28.4 °F 14.4 °F 23.0 °F 80% 29.98 in 10.0 mi SE 23.0 mph 32.2 mph N/A   Overcast
1:55 AM 28.4 °F 16.6 °F 23.0 °F 80% 29.98 in 10.0 mi SSE 16.1 mph 27.6 mph N/A   Overcast
2:15 AM 28.4 °F 18.5 °F 23.0 °F 80% 29.98 in 10.0 mi SSE 11.5 mph 24.2 mph N/A   Overcast
2:35 AM 28.4 °F 18.0 °F 23.0 °F 80% 29.98 in 10.0 mi SSE 12.7 mph 21.9 mph N/A   Overcast
2:55 AM 26.6 °F 14.3 °F 23.0 °F 86% 29.98 in 9.0 mi South 16.1 mph 28.8 mph 0.01 in   Overcast
3:15 AM 26.6 °F 14.7 °F 24.8 °F 93% 29.97 in 5.0 mi South 15.0 mph 24.2 mph 0.02 in   Overcast
3:35 AM 26.6 °F 15.2 °F 23.0 °F 86% 29.96 in 2.5 mi South 13.8 mph 21.9 mph 0.04 in   Overcast
3:55 AM 26.6 °F 14.3 °F 23.0 °F 86% 29.95 in 6.0 mi SSE 16.1 mph 25.3 mph 0.05 in   Overcast
4:15 AM 28.4 °F 18.0 °F 21.2 °F 74% 29.94 in 10.0 mi SSE 12.7 mph 29.9 mph 0.01 in   Overcast
4:35 AM 28.4 °F 16.2 °F 21.2 °F 74% 29.94 in 10.0 mi South 17.3 mph 24.2 mph 0.01 in   Overcast
4:55 AM 28.4 °F 17.5 °F 21.2 °F 74% 29.94 in 10.0 mi SSE 13.8 mph 25.3 mph 0.02 in   Overcast
5:15 AM 28.4 °F 17.0 °F 23.0 °F 80% 29.94 in 10.0 mi South 15.0 mph 26.5 mph N/A   Overcast
5:35 AM 28.4 °F 17.5 °F 21.2 °F 74% 29.94 in 10.0 mi South 13.8 mph 23.0 mph N/A   Overcast
5:55 AM 28.4 °F 17.5 °F 23.0 °F 80% 29.95 in 10.0 mi South 13.8 mph 21.9 mph N/A   Overcast
6:15 AM 28.4 °F 16.6 °F 23.0 °F 80% 29.95 in 9.0 mi South 16.1 mph 25.3 mph N/A   Overcast
6:35 AM 28.4 °F 17.5 °F 24.8 °F 86% 29.94 in 10.0 mi SSE 13.8 mph 19.6 mph 0.01 in   Overcast
6:55 AM 28.4 °F 18.0 °F 23.0 °F 80% 29.95 in 9.0 mi SSE 12.7 mph 19.6 mph 0.01 in   Overcast
7:15 AM 28.4 °F 17.0 °F 23.0 °F 80% 29.94 in 10.0 mi South 15.0 mph 21.9 mph N/A   Overcast
7:35 AM 28.4 °F 19.7 °F 24.8 °F 86% 29.95 in 10.0 mi SSW 9.2 mph 20.7 mph N/A   Overcast
7:55 AM 28.4 °F 17.5 °F 23.0 °F 80% 29.95 in 10.0 mi SSE 13.8 mph 24.2 mph N/A   Overcast
8:15 AM 28.4 °F 15.8 °F 24.8 °F 86% 29.94 in 10.0 mi SE 18.4 mph 27.6 mph N/A   Overcast
8:35 AM 28.4 °F 16.6 °F 24.8 °F 86% 29.93 in 10.0 mi SE 16.1 mph 24.2 mph N/A   Overcast
8:55 AM 28.4 °F 16.2 °F 23.0 °F 80% 29.93 in 10.0 mi SSE 17.3 mph 26.5 mph 0.01 in   Overcast
9:15 AM 30.2 °F 19.3 °F 24.8 °F 80% 29.93 in 10.0 mi South 15.0 mph 26.5 mph N/A   Overcast
9:35 AM 30.2 °F 20.2 °F 24.8 °F 80% 29.93 in 10.0 mi SSE 12.7 mph 23.0 mph N/A   Overcast
9:55 AM 30.2 °F 20.2 °F 24.8 °F 80% 29.93 in 10.0 mi SSE 12.7 mph 23.0 mph N/A   Overcast
10:15 AM 30.2 °F 19.3 °F 24.8 °F 80% 29.93 in 10.0 mi SSE 15.0 mph 26.5 mph N/A   Overcast
10:55 AM 30.2 °F 21.9 °F 24.8 °F 80% 29.94 in 10.0 mi South 9.2 mph 17.3 mph N/A   Overcast
11:15 AM 30.2 °F 21.3 °F 26.6 °F 86% 29.93 in 10.0 mi South 10.4 mph 19.6 mph N/A   Overcast
11:35 AM 30.2 °F 20.8 °F 26.6 °F 86% 29.92 in 10.0 mi South 11.5 mph 18.4 mph N/A   Overcast
11:55 AM 30.2 °F 22.6 °F 26.6 °F 86% 29.92 in 9.0 mi SSW 8.1 mph 19.6 mph N/A   Overcast
12:15 PM 30.2 °F 20.8 °F 24.8 °F 80% 29.92 in 10.0 mi South 11.5 mph 24.2 mph N/A   Overcast
12:35 PM 30.2 °F 19.3 °F 26.6 °F 86% 29.92 in 10.0 mi South 15.0 mph 24.2 mph N/A   Overcast
12:55 PM 30.2 °F 19.3 °F 26.6 °F 86% 29.91 in 10.0 mi South 15.0 mph 21.9 mph N/A   Overcast
1:15 PM 30.2 °F 19.8 °F 26.6 °F 86% 29.90 in 10.0 mi South 13.8 mph 18.4 mph N/A   Overcast
1:35 PM 30.2 °F 19.8 °F 26.6 °F 86% 29.91 in 10.0 mi South 13.8 mph 27.6 mph N/A   Overcast
2:35 PM 32.0 °F 22.1 °F 28.4 °F 87% 29.89 in 10.0 mi South 13.8 mph 18.4 mph N/A   Overcast
2:55 PM 32.0 °F 24.2 °F 26.6 °F 80% 29.90 in 10.0 mi South 9.2 mph 21.9 mph N/A   Overcast
3:15 PM 33.8 °F 23.9 °F 28.4 °F 81% 29.89 in 10.0 mi South 15.0 mph 18.4 mph N/A   Overcast
3:35 PM 33.8 °F 25.8 °F 28.4 °F 81% 29.90 in 10.0 mi South 10.4 mph 19.6 mph N/A   Overcast
3:55 PM 33.8 °F 25.3 °F 28.4 °F 81% 29.89 in 10.0 mi South 11.5 mph 20.7 mph N/A   Overcast
4:15 PM 33.8 °F 23.5 °F 28.4 °F 81% 29.88 in 10.0 mi South 16.1 mph 25.3 mph N/A   Overcast
4:35 PM 33.8 °F 24.8 °F 28.4 °F 81% 29.87 in 10.0 mi South 12.7 mph 17.3 mph N/A   Overcast
4:55 PM 33.8 °F 23.9 °F 28.4 °F 81% 29.86 in 10.0 mi South 15.0 mph - N/A   Overcast
7:35 PM 35.6 °F 26.2 °F 30.2 °F 81% 29.85 in 10.0 mi South 15.0 mph 25.3 mph N/A   Overcast
7:55 PM 35.6 °F 29.2 °F 30.2 °F 81% 29.86 in 10.0 mi South 8.1 mph 20.7 mph N/A   Overcast
8:15 PM 35.6 °F 25.9 °F 30.2 °F 81% 29.85 in 10.0 mi South 16.1 mph 23.0 mph N/A   Overcast
8:35 PM 35.6 °F 26.2 °F 30.2 °F 81% 29.85 in 10.0 mi South 15.0 mph 24.2 mph N/A   Overcast
8:55 PM 35.6 °F 26.6 °F 30.2 °F 81% 29.85 in 10.0 mi SSW 13.8 mph 19.6 mph N/A   Overcast
9:15 PM 35.6 °F 25.9 °F 30.2 °F 81% 29.84 in 10.0 mi South 16.1 mph 26.5 mph N/A   Overcast
9:35 PM 35.6 °F 27.1 °F 30.2 °F 81% 29.82 in 10.0 mi South 12.7 mph 24.2 mph N/A   Overcast
10:15 PM 35.6 °F 26.6 °F 32.0 °F 87% 29.81 in 10.0 mi SSE 13.8 mph 17.3 mph N/A   Overcast
10:35 PM 35.6 °F 26.6 °F 30.2 °F 81% 29.79 in 10.0 mi South 13.8 mph 17.3 mph N/A   Overcast
10:55 PM 35.6 °F 28.6 °F 33.8 °F 93% 29.79 in 10.0 mi South 9.2 mph 16.1 mph N/A   Overcast
11:15 PM 35.6 °F 28.0 °F 32.0 °F 87% 29.79 in 10.0 mi SE 10.4 mph 16.1 mph N/A   Overcast
11:35 PM 35.6 °F 28.0 °F 32.0 °F 87% 29.78 in 10.0 mi SE 10.4 mph 18.4 mph N/A   Overcast
11:55 PM 35.6 °F 26.6 °F 33.8 °F 93% 29.75 in 10.0 mi SSE 13.8 mph 20.7 mph N/A   Overcast